John C. Munro Hamilton International Airport
CYHM : now visible

Airfield :











YOU CAN JOIN US ON...

 
LOGIN :

Register | Disclaimer

   EN    FR    IT 

 









Legend :    VFR   Marginal VFR   IFR   Intensive IFR   Very Intensive IFR
Visi :
Ceiling :
>= 8 km
>= 3000ft
5 to 8 km
1000 to 3000 ft
1500m to 5 km
500 to 1000 ft
800 to 1500m
200 to 500 ft
< 800m
< 200 ft
Symbols :   Thunderstorms  Fog  Heavy snow  Heavy precipitations  Wind > 20 kt






- Airport Elevation : 780 ft
- IATA code : YHM


CYHM - John C. Munro Hamilton International

CURRENT METAR :
  • 121700Z VRB02KT 15SM FEW030 15/M02 A3031 RMK CU1 SLP270

EXPIRED METARs :
  • 121600Z 34006G17KT 290V050 15SM FEW025 15/M02 A3032 RMK CU1 SLP272
  • 121500Z 01012G18KT 15SM FEW025 15/M03 A3032 RMK CU1 CU TR SLP273

TAF TAF CYHM
Valid from the 12 at 12:00 until the 13 at 12:00 UTC


121138Z 1212/1312 33008KT P6SM FEW040
FM121400 36010KT P6SM FEW050
FM130500 33007KT P6SM BKN080 RMK NXT FCST BY 121800Z
CZYZ FIR / North America



MET'MAP, your aeronautical weather chart ! - Copyright ORBIFLY December 2007 - Disclaimer

ORBIFLY MET'MAP TEAM :

Programming & Development : Alexandra Zaïnal
Concept & original design : Baudouin d'Aumeries
Assistance for programming : Marc-Olivier Méhu
Technical & hardware support : Manuel Goepfert

Contact : metmap@orbifly.com




SOURCES & CREDITS :

   NOAA       Earth
Advisory